"Sample Date","Sample Time","Sensor Name","Sample Value","Units","Flow Rate","Sample Interval","Sample Volume","Laser Status","Number Channels","Micron Size 0","Counts/Channel 0","Micron Size 1","Counts/Channel 1","Micron Size 2","Counts/Channel 2","Micron Size 3","Counts/Channel 3","Micron Size 4","Counts/Channel 4","Micron Size 5","Counts/Channel 5","Micron Size 6","Counts/Channel 6","Micron Size 7","Counts/Channel 7","Micron Size 8","Counts/Channel 8","Micron Size 9","Counts/Channel 9","Micron Size 10","Counts/Channel 10","Micron Size 11","Counts/Channel 11","Micron Size 12","Counts/Channel 12","Micron Size 13","Counts/Channel 13","Micron Size 14","Counts/Channel 14","Micron Size 15","Counts/Channel 15","Micron Size 16","Counts/Channel 16","Micron Size 17","Counts/Channel 17","Micron Size 18","Counts/Channel 18","Micron Size 19","Counts/Channel 19","Micron Size 20","Counts/Channel 20","Micron Size 21","Counts/Channel 21","Micron Size 22","Counts/Channel 22","Micron Size 23","Counts/Channel 23","Micron Size 24","Counts/Channel 24","Micron Size 25","Counts/Channel 25","Micron Size 26","Counts/Channel 26","Micron Size 27","Counts/Channel 27","Micron Size 28","Counts/Channel 28","Micron Size 29","Counts/Channel 29","Micron Size 30","Counts/Channel 30","Micron Size 31","Counts/Channel 31"
"07/11/06","04:00:04","AMMA06",83011.000,"cc",28371.928,6.00,2837.193,1,6,0.100,45264.000,0.200,26362.000,0.300,9380.000,0.500,1472.000,1.000,533.000,5.000,0
"07/11/06","04:00:10","AMMA06",84147.000,"cc",28282.498,6.00,2828.250,1,6,0.100,46487.000,0.200,26598.000,0.300,9111.000,0.500,1438.000,1.000,513.000,5.000,0
"07/11/06","04:00:16","AMMA06",88822.000,"cc",28317.584,6.00,2831.759,1,6,0.100,49898.000,0.200,27617.000,0.300,9360.000,0.500,1465.000,1.000,482.000,5.000,0
"07/11/06","04:00:22","AMMA06",81890.000,"cc",28321.783,6.00,2832.179,1,6,0.100,44686.000,0.200,25966.000,0.300,9207.000,0.500,1481.000,1.000,550.000,5.000,0
"07/11/06","04:00:28","AMMA06",82825.000,"cc",28401.773,6.00,2840.178,1,6,0.100,45456.000,0.200,26377.000,0.300,9117.000,0.500,1359.000,1.000,515.000,5.000,1.000
"07/11/06","04:00:34","AMMA06",83408.000,"cc",28340.801,6.00,2834.080,1,6,0.100,45409.000,0.200,26761.000,0.300,9252.000,0.500,1454.000,1.000,532.000,5.000,0
"07/11/06","04:00:40","AMMA06",100176.000,"cc",28274.273,6.00,2827.428,1,6,0.100,57306.000,0.200,30125.000,0.300,10273.000,0.500,1704.000,1.000,766.000,5.000,2.000
"07/11/06","04:00:46","AMMA06",83054.000,"cc",28276.303,6.00,2827.630,1,6,0.100,45205.000,0.200,26476.000,0.300,9230.000,0.500,1566.000,1.000,577.000,5.000,0
"07/11/06","04:00:52","AMMA06",81676.000,"cc",28341.807,6.00,2834.181,1,6,0.100,44589.000,0.200,26190.000,0.300,9135.000,0.500,1351.000,1.000,411.000,5.000,0
"07/11/06","04:00:58","AMMA06",82056.000,"cc",28320.594,6.00,2832.060,1,6,0.100,45013.000,0.200,26098.000,0.300,9136.000,0.500,1363.000,1.000,446.000,5.000,0
"07/11/06","04:01:04","AMMA06",82410.000,"cc",28283.055,6.00,2828.306,1,6,0.100,44114.000,0.200,26594.000,0.300,9470.000,0.500,1609.000,1.000,621.000,5.000,2.000
"07/11/06","04:01:10","AMMA06",81593.000,"cc",28305.410,6.00,2830.541,1,6,0.100,45004.000,0.200,26033.000,0.300,8936.000,0.500,1216.000,1.000,403.000,5.000,1.000
"07/11/06","04:01:16","AMMA06",83793.000,"cc",28328.475,6.00,2832.848,1,6,0.100,46484.000,0.200,26641.000,0.300,9010.000,0.500,1267.000,1.000,391.000,5.000,0
"07/11/06","04:01:22","AMMA06",82595.000,"cc",28279.869,6.00,2827.987,1,6,0.100,45630.000,0.200,26433.000,0.300,8901.000,0.500,1256.000,1.000,375.000,5.000,0
"07/11/06","04:01:28","AMMA06",83787.000,"cc",28365.291,6.00,2836.529,1,6,0.100,46504.000,0.200,26688.000,0.300,8769.000,0.500,1355.000,1.000,471.000,5.000,0
"07/11/06","04:01:34","AMMA06",88885.000,"cc",28331.881,6.00,2833.188,1,6,0.100,50138.000,0.200,27726.000,0.300,9219.000,0.500,1397.000,1.000,405.000,5.000,0
"07/11/06","04:01:40","AMMA06",89170.000,"cc",28316.043,6.00,2831.605,1,6,0.100,50873.000,0.200,27705.000,0.300,9020.000,0.500,1178.000,1.000,394.000,5.000,0
"07/11/06","04:01:46","AMMA06",81181.000,"cc",28309.967,6.00,2830.997,1,6,0.100,44977.000,0.200,26029.000,0.300,8670.000,0.500,1160.000,1.000,345.000,5.000,0
"07/11/06","04:01:52","AMMA06",80811.000,"cc",28324.781,6.00,2832.478,1,6,0.100,44695.000,0.200,25819.000,0.300,8596.000,0.500,1243.000,1.000,458.000,5.000,0
"07/11/06","04:01:58","AMMA06",83618.000,"cc",28368.535,6.00,2836.854,1,6,0.100,46212.000,0.200,26347.000,0.300,8821.000,0.500,1544.000,1.000,693.000,5.000,1.000
"07/11/06","04:02:04","AMMA06",82388.000,"cc",28253.656,6.00,2825.366,1,6,0.100,45334.000,0.200,26488.000,0.300,8760.000,0.500,1316.000,1.000,490.000,5.000,0
"07/11/06","04:02:10","AMMA06",81453.000,"cc",28240.879,6.00,2824.088,1,6,0.100,45239.000,0.200,26021.000,0.300,8610.000,0.500,1171.000,1.000,411.000,5.000,1.000
"07/11/06","04:02:16","AMMA06",81807.000,"cc",28361.244,6.00,2836.125,1,6,0.100,45635.000,0.200,26014.000,0.300,8501.000,0.500,1253.000,1.000,403.000,5.000,1.000
"07/11/06","04:02:22","AMMA06",81698.000,"cc",28345.473,6.00,2834.547,1,6,0.100,45492.000,0.200,26190.000,0.300,8366.000,0.500,1183.000,1.000,466.000,5.000,1.000
"07/11/06","04:02:28","AMMA06",84404.000,"cc",28373.688,6.00,2837.369,1,6,0.100,47587.000,0.200,26631.000,0.300,8546.000,0.500,1165.000,1.000,474.000,5.000,1.000
"07/11/06","04:02:34","AMMA06",82155.000,"cc",28315.727,6.00,2831.573,1,6,0.100,45736.000,0.200,26057.000,0.300,8534.000,0.500,1291.000,1.000,537.000,5.000,0
"07/11/06","04:02:40","AMMA06",80749.000,"cc",28330.147,6.00,2833.015,1,6,0.100,44961.000,0.200,25981.000,0.300,8234.000,0.500,1131.000,1.000,442.000,5.000,0
"07/11/06","04:02:46","AMMA06",81559.000,"cc",28269.352,6.00,2826.935,1,6,0.100,45200.000,0.200,26116.000,0.300,8490.000,0.500,1223.000,1.000,530.000,5.000,0
"07/11/06","04:02:52","AMMA06",83933.000,"cc",28324.022,6.00,2832.402,1,6,0.100,46968.000,0.200,26507.000,0.300,8731.000,0.500,1254.000,1.000,473.000,5.000,0
"07/11/06","04:02:58","AMMA06",81692.000,"cc",28310.963,6.00,2831.096,1,6,0.100,45843.000,0.200,25941.000,0.300,8418.000,0.500,1136.000,1.000,354.000,5.000,0
"07/11/06","04:03:04","AMMA06",80353.000,"cc",28274.785,6.00,2827.479,1,6,0.100,44550.000,0.200,26048.000,0.300,8316.000,0.500,1083.000,1.000,356.000,5.000,0
"07/11/06","04:03:10","AMMA06",82996.000,"cc",28329.666,6.00,2832.967,1,6,0.100,46539.000,0.200,26345.000,0.300,8503.000,0.500,1170.000,1.000,439.000,5.000,0
"07/11/06","04:03:16","AMMA06",81087.000,"cc",28295.250,6.00,2829.525,1,6,0.100,45024.000,0.200,25847.000,0.300,8608.000,0.500,1190.000,1.000,418.000,5.000,0
"07/11/06","04:03:22","AMMA06",80659.000,"cc",28381.414,6.00,2838.142,1,6,0.100,44676.000,0.200,25914.000,0.300,8449.000,0.500,1253.000,1.000,367.000,5.000,0
"07/11/06","04:03:28","AMMA06",80411.000,"cc",28373.656,6.00,2837.366,1,6,0.100,44460.000,0.200,26023.000,0.300,8403.000,0.500,1169.000,1.000,355.000,5.000,1.000
"07/11/06","04:03:34","AMMA06",80254.000,"cc",28322.344,6.00,2832.235,1,6,0.100,44506.000,0.200,25874.000,0.300,8360.000,0.500,1149.000,1.000,365.000,5.000,0
"07/11/06","04:03:40","AMMA06",84074.000,"cc",28324.613,6.00,2832.461,1,6,0.100,45765.000,0.200,26376.000,0.300,9254.000,0.500,1755.000,1.000,923.000,5.000,1.000
"07/11/06","04:03:46","AMMA06",86892.000,"cc",28312.342,6.00,2831.234,1,6,0.100,48654.000,0.200,26940.000,0.300,8983.000,0.500,1611.000,1.000,704.000,5.000,0
"07/11/06","04:03:52","AMMA06",82186.000,"cc",28331.279,6.00,2833.128,1,6,0.100,45261.000,0.200,26076.000,0.300,8801.000,0.500,1410.000,1.000,638.000,5.000,0
"07/11/06","04:03:58","AMMA06",82498.000,"cc",28309.938,6.00,2830.994,1,6,0.100,45470.000,0.200,26460.000,0.300,8702.000,0.500,1347.000,1.000,518.000,5.000,1.000
"07/11/06","04:04:04","AMMA06",81840.000,"cc",28301.287,6.00,2830.129,1,6,0.100,45446.000,0.200,26215.000,0.300,8466.000,0.500,1255.000,1.000,457.000,5.000,1.000
"07/11/06","04:04:10","AMMA06",81023.000,"cc",28324.721,6.00,2832.472,1,6,0.100,44873.000,0.200,25813.000,0.300,8528.000,0.500,1296.000,1.000,512.000,5.000,1.000
"07/11/06","04:04:16","AMMA06",79513.000,"cc",28261.375,6.00,2826.138,1,6,0.100,43861.000,0.200,25881.000,0.300,8222.000,0.500,1141.000,1.000,407.000,5.000,1.000
"07/11/06","04:04:22","AMMA06",79656.000,"cc",28358.496,6.00,2835.850,1,6,0.100,44057.000,0.200,25811.000,0.300,8252.000,0.500,1152.000,1.000,384.000,5.000,0
"07/11/06","04:04:28","AMMA06",78361.000,"cc",28357.523,6.00,2835.752,1,6,0.100,43170.000,0.200,25756.000,0.300,8066.000,0.500,1053.000,1.000,316.000,5.000,0
"07/11/06","04:04:34","AMMA06",78970.000,"cc",28348.320,6.00,2834.832,1,6,0.100,43477.000,0.200,25890.000,0.300,7993.000,0.500,1161.000,1.000,449.000,5.000,0
"07/11/06","04:04:40","AMMA06",79513.000,"cc",28276.455,6.00,2827.646,1,6,0.100,43507.000,0.200,26255.000,0.300,8074.000,0.500,1209.000,1.000,468.000,5.000,0
"07/11/06","04:04:46","AMMA06",79171.000,"cc",28324.736,6.00,2832.474,1,6,0.100,43584.000,0.200,25995.000,0.300,8079.000,0.500,1080.000,1.000,433.000,5.000,0
"07/11/06","04:04:52","AMMA06",80455.000,"cc",28299.352,6.00,2829.935,1,6,0.100,44114.000,0.200,25983.000,0.300,8267.000,0.500,1415.000,1.000,675.000,5.000,1.000
"07/11/06","04:04:58","AMMA06",80417.000,"cc",28314.258,6.00,2831.426,1,6,0.100,44156.000,0.200,25944.000,0.300,8406.000,0.500,1327.000,1.000,583.000,5.000,1.000
"07/11/06","04:05:04","AMMA06",80637.000,"cc",28330.787,6.00,2833.079,1,6,0.100,44676.000,0.200,25926.000,0.300,8198.000,0.500,1290.000,1.000,547.000,5.000,0
"07/11/06","04:05:10","AMMA06",79695.000,"cc",28272.289,6.00,2827.229,1,6,0.100,43740.000,0.200,26335.000,0.300,7982.000,0.500,1218.000,1.000,420.000,5.000,0
"07/11/06","04:05:16","AMMA06",83102.000,"cc",28304.160,6.00,2830.416,1,6,0.100,46062.000,0.200,26704.000,0.300,8516.000,0.500,1263.000,1.000,557.000,5.000,0
"07/11/06","04:05:22","AMMA06",82883.000,"cc",28303.119,6.00,2830.312,1,6,0.100,46525.000,0.200,26396.000,0.300,8305.000,0.500,1213.000,1.000,444.000,5.000,0
"07/11/06","04:05:28","AMMA06",81522.000,"cc",28325.240,6.00,2832.524,1,6,0.100,44232.000,0.200,26351.000,0.300,8570.000,0.500,1550.000,1.000,819.000,5.000,0
"07/11/06","04:05:34","AMMA06",80020.000,"cc",28351.170,6.00,2835.117,1,6,0.100,43482.000,0.200,26047.000,0.300,8426.000,0.500,1423.000,1.000,641.000,5.000,1.000
"07/11/06","04:05:40","AMMA06",85124.000,"cc",28361.840,6.00,2836.184,1,6,0.100,46063.000,0.200,27185.000,0.300,9119.000,0.500,1796.000,1.000,961.000,5.000,0
"07/11/06","04:05:46","AMMA06",81577.000,"cc",28318.867,6.00,2831.887,1,6,0.100,44706.000,0.200,26379.000,0.300,8606.000,0.500,1338.000,1.000,548.000,5.000,0
"07/11/06","04:05:52","AMMA06",82386.000,"cc",28293.861,6.00,2829.386,1,6,0.100,45428.000,0.200,26539.000,0.300,8609.000,0.500,1278.000,1.000,532.000,5.000,0
"07/11/06","04:05:58","AMMA06",79098.000,"cc",28346.551,6.00,2834.655,1,6,0.100,43126.000,0.200,25930.000,0.300,8389.000,0.500,1200.000,1.000,453.000,5.000,0
"07/11/06","04:06:04","AMMA06",78655.000,"cc",28274.047,6.00,2827.405,1,6,0.100,42548.000,0.200,25975.000,0.300,8528.000,0.500,1198.000,1.000,406.000,5.000,0
"07/11/06","04:06:10","AMMA06",77974.000,"cc",28313.551,6.00,2831.355,1,6,0.100,42334.000,0.200,25525.000,0.300,8386.000,0.500,1281.000,1.000,448.000,5.000,0
"07/11/06","04:06:16","AMMA06",77626.000,"cc",28318.578,6.00,2831.858,1,6,0.100,41821.000,0.200,25757.000,0.300,8394.000,0.500,1254.000,1.000,400.000,5.000,0
"07/11/06","04:06:22","AMMA06",78020.000,"cc",28299.822,6.00,2829.982,1,6,0.100,42225.000,0.200,25931.000,0.300,8365.000,0.500,1155.000,1.000,344.000,5.000,0
"07/11/06","04:06:28","AMMA06",78525.000,"cc",28288.754,6.00,2828.876,1,6,0.100,42263.000,0.200,25654.000,0.300,8711.000,0.500,1369.000,1.000,528.000,5.000,0
"07/11/06","04:06:34","AMMA06",78976.000,"cc",28314.842,6.00,2831.484,1,6,0.100,42569.000,0.200,25891.000,0.300,8611.000,0.500,1400.000,1.000,505.000,5.000,0
"07/11/06","04:06:40","AMMA06",78513.000,"cc",28318.096,6.00,2831.810,1,6,0.100,42121.000,0.200,26049.000,0.300,8581.000,0.500,1301.000,1.000,460.000,5.000,1.000
"07/11/06","04:06:46","AMMA06",77577.000,"cc",28323.975,6.00,2832.398,1,6,0.100,41737.000,0.200,25575.000,0.300,8674.000,0.500,1228.000,1.000,363.000,5.000,0
"07/11/06","04:06:52","AMMA06",78125.000,"cc",28367.490,6.00,2836.749,1,6,0.100,42319.000,0.200,25640.000,0.300,8486.000,0.500,1281.000,1.000,399.000,5.000,0
"07/11/06","04:06:58","AMMA06",79617.000,"cc",28276.572,6.00,2827.658,1,6,0.100,43099.000,0.200,26052.000,0.300,8582.000,0.500,1409.000,1.000,475.000,5.000,0
"07/11/06","04:07:04","AMMA06",78718.000,"cc",28269.420,6.00,2826.942,1,6,0.100,42312.000,0.200,26029.000,0.300,8549.000,0.500,1330.000,1.000,497.000,5.000,1.000
"07/11/06","04:07:10","AMMA06",78489.000,"cc",28334.697,6.00,2833.470,1,6,0.100,42147.000,0.200,26065.000,0.300,8543.000,0.500,1297.000,1.000,437.000,5.000,0
"07/11/06","04:07:16","AMMA06",79010.000,"cc",28317.963,6.00,2831.796,1,6,0.100,42775.000,0.200,26288.000,0.300,8357.000,0.500,1231.000,1.000,357.000,5.000,2.000
"07/11/06","04:07:22","AMMA06",81901.000,"cc",28348.904,6.00,2834.891,1,6,0.100,45078.000,0.200,26639.000,0.300,8484.000,0.500,1265.000,1.000,435.000,5.000,0
"07/11/06","04:07:28","AMMA06",80511.000,"cc",28303.219,6.00,2830.322,1,6,0.100,43521.000,0.200,26325.000,0.300,8524.000,0.500,1472.000,1.000,669.000,5.000,0
"07/11/06","04:07:34","AMMA06",83799.000,"cc",28325.557,6.00,2832.556,1,6,0.100,46007.000,0.200,27238.000,0.300,8756.000,0.500,1293.000,1.000,503.000,5.000,2.000
"07/11/06","04:07:40","AMMA06",81560.000,"cc",28301.658,6.00,2830.166,1,6,0.100,44591.000,0.200,26273.000,0.300,8737.000,0.500,1391.000,1.000,568.000,5.000,0
"07/11/06","04:07:46","AMMA06",79418.000,"cc",28339.818,6.00,2833.982,1,6,0.100,42844.000,0.200,26226.000,0.300,8609.000,0.500,1302.000,1.000,437.000,5.000,0
"07/11/06","04:07:52","AMMA06",80095.000,"cc",28346.254,6.00,2834.626,1,6,0.100,42906.000,0.200,26196.000,0.300,8838.000,0.500,1512.000,1.000,643.000,5.000,0
"07/11/06","04:07:58","AMMA06",77949.000,"cc",28317.969,6.00,2831.797,1,6,0.100,41811.000,0.200,26103.000,0.300,8382.000,0.500,1223.000,1.000,430.000,5.000,0
"07/11/06","04:08:04","AMMA06",78132.000,"cc",28316.451,6.00,2831.645,1,6,0.100,42313.000,0.200,26013.000,0.300,8111.000,0.500,1248.000,1.000,447.000,5.000,0
"07/11/06","04:08:10","AMMA06",82057.000,"cc",28255.342,6.00,2825.534,1,6,0.100,43585.000,0.200,26864.000,0.300,8992.000,0.500,1753.000,1.000,863.000,5.000,0
"07/11/06","04:08:16","AMMA06",78856.000,"cc",28351.725,6.00,2835.173,1,6,0.100,42091.000,0.200,26386.000,0.300,8663.000,0.500,1261.000,1.000,455.000,5.000,0
"07/11/06","04:08:22","AMMA06",81603.000,"cc",28352.418,6.00,2835.242,1,6,0.100,44661.000,0.200,26741.000,0.300,8564.000,0.500,1216.000,1.000,421.000,5.000,0
"07/11/06","04:08:28","AMMA06",79151.000,"cc",28303.871,6.00,2830.387,1,6,0.100,42127.000,0.200,26545.000,0.300,8699.000,0.500,1312.000,1.000,468.000,5.000,0
"07/11/06","04:08:34","AMMA06",84249.000,"cc",28333.941,6.00,2833.394,1,6,0.100,45925.000,0.200,27284.000,0.300,8928.000,0.500,1459.000,1.000,653.000,5.000,0
"07/11/06","04:08:40","AMMA06",85290.000,"cc",28316.289,6.00,2831.629,1,6,0.100,46810.000,0.200,27592.000,0.300,8859.000,0.500,1459.000,1.000,570.000,5.000,0
"07/11/06","04:08:46","AMMA06",81469.000,"cc",28300.525,6.00,2830.053,1,6,0.100,43817.000,0.200,26885.000,0.300,8857.000,0.500,1378.000,1.000,531.000,5.000,1.000
"07/11/06","04:08:52","AMMA06",79680.000,"cc",28319.311,6.00,2831.931,1,6,0.100,42192.000,0.200,26436.000,0.300,8956.000,0.500,1515.000,1.000,581.000,5.000,0
"07/11/06","04:08:58","AMMA06",87182.000,"cc",28307.670,6.00,2830.767,1,6,0.100,47572.000,0.200,27933.000,0.300,9404.000,0.500,1579.000,1.000,694.000,5.000,0
"07/11/06","04:09:04","AMMA06",83015.000,"cc",28278.680,6.00,2827.868,1,6,0.100,43750.000,0.200,27155.000,0.300,9668.000,0.500,1719.000,1.000,723.000,5.000,0
"07/11/06","04:09:10","AMMA06",84789.000,"cc",28369.633,6.00,2836.963,1,6,0.100,44843.000,0.200,27613.000,0.300,9757.000,0.500,1791.000,1.000,785.000,5.000,0
"07/11/06","04:09:16","AMMA06",83520.000,"cc",28301.609,6.00,2830.161,1,6,0.100,43844.000,0.200,27680.000,0.300,9406.000,0.500,1784.000,1.000,806.000,5.000,0
"07/11/06","04:09:22","AMMA06",81123.000,"cc",28285.537,6.00,2828.554,1,6,0.100,42962.000,0.200,26950.000,0.300,9010.000,0.500,1563.000,1.000,638.000,5.000,0
"07/11/06","04:09:28","AMMA06",84198.000,"cc",28292.924,6.00,2829.293,1,6,0.100,44595.000,0.200,27568.000,0.300,9456.000,0.500,1768.000,1.000,811.000,5.000,0
"07/11/06","04:09:34","AMMA06",85116.000,"cc",28332.168,6.00,2833.217,1,6,0.100,45387.000,0.200,27549.000,0.300,9481.000,0.500,1862.000,1.000,837.000,5.000,0
"07/11/06","04:09:40","AMMA06",87718.000,"cc",28299.109,6.00,2829.911,1,6,0.100,47881.000,0.200,28378.000,0.300,9381.000,0.500,1489.000,1.000,587.000,5.000,2.000
"07/11/06","04:09:46","AMMA06",84380.000,"cc",28316.190,6.00,2831.619,1,6,0.100,45829.000,0.200,27634.000,0.300,9121.000,0.500,1339.000,1.000,457.000,5.000,0
"07/11/06","04:09:52","AMMA06",79578.000,"cc",28327.387,6.00,2832.739,1,6,0.100,42647.000,0.200,26712.000,0.300,8692.000,0.500,1159.000,1.000,368.000,5.000,0
"07/11/06","04:09:58","AMMA06",81180.000,"cc",28332.145,6.00,2833.215,1,6,0.100,43758.000,0.200,26999.000,0.300,8761.000,0.500,1273.000,1.000,388.000,5.000,1.000
"07/11/06","04:10:04","AMMA06",77445.000,"cc",28289.490,6.00,2828.949,1,6,0.100,40943.000,0.200,26432.000,0.300,8485.000,0.500,1189.000,1.000,396.000,5.000,0
"07/11/06","04:10:10","AMMA06",79452.000,"cc",28317.799,6.00,2831.780,1,6,0.100,42160.000,0.200,26709.000,0.300,8607.000,0.500,1415.000,1.000,561.000,5.000,0
"07/11/06","04:10:16","AMMA06",81399.000,"cc",28335.535,6.00,2833.554,1,6,0.100,43640.000,0.200,27144.000,0.300,8651.000,0.500,1412.000,1.000,551.000,5.000,1.000
"07/11/06","04:10:22","AMMA06",77221.000,"cc",28319.795,6.00,2831.980,1,6,0.100,40991.000,0.200,26216.000,0.300,8279.000,0.500,1284.000,1.000,450.000,5.000,1.000
"07/11/06","04:10:28","AMMA06",84041.000,"cc",28364.857,6.00,2836.486,1,6,0.100,44020.000,0.200,27388.000,0.300,9257.000,0.500,2137.000,1.000,1239.000,5.000,0
"07/11/06","04:10:34","AMMA06",84804.000,"cc",28286.391,6.00,2828.639,1,6,0.100,45315.000,0.200,27426.000,0.300,9301.000,0.500,1811.000,1.000,951.000,5.000,0
"07/11/06","04:10:40","AMMA06",80493.000,"cc",28288.885,6.00,2828.889,1,6,0.100,43301.000,0.200,26945.000,0.300,8467.000,0.500,1278.000,1.000,502.000,5.000,0
"07/11/06","04:10:46","AMMA06",79752.000,"cc",28332.322,6.00,2833.232,1,6,0.100,43133.000,0.200,26816.000,0.300,8321.000,0.500,1135.000,1.000,347.000,5.000,0
"07/11/06","04:10:52","AMMA06",79750.000,"cc",28373.404,6.00,2837.341,1,6,0.100,43017.000,0.200,26652.000,0.300,8380.000,0.500,1247.000,1.000,454.000,5.000,0
"07/11/06","04:10:58","AMMA06",83805.000,"cc",28295.889,6.00,2829.589,1,6,0.100,44941.000,0.200,27531.000,0.300,9045.000,0.500,1552.000,1.000,736.000,5.000,0
"07/11/06","04:11:04","AMMA06",78735.000,"cc",28303.389,6.00,2830.339,1,6,0.100,41921.000,0.200,26442.000,0.300,8459.000,0.500,1333.000,1.000,580.000,5.000,0
"07/11/06","04:11:10","AMMA06",78598.000,"cc",28309.809,6.00,2830.981,1,6,0.100,42034.000,0.200,26747.000,0.300,8140.000,0.500,1217.000,1.000,460.000,5.000,0
"07/11/06","04:11:16","AMMA06",77399.000,"cc",28323.045,6.00,2832.305,1,6,0.100,41547.000,0.200,26247.000,0.300,8091.000,0.500,1104.000,1.000,410.000,5.000,0
"07/11/06","04:11:22","AMMA06",77873.000,"cc",28334.984,6.00,2833.499,1,6,0.100,41783.000,0.200,26420.000,0.300,8154.000,0.500,1118.000,1.000,398.000,5.000,0
"07/11/06","04:11:28","AMMA06",78473.000,"cc",28279.469,6.00,2827.947,1,6,0.100,42093.000,0.200,26343.000,0.300,8204.000,0.500,1259.000,1.000,574.000,5.000,0
"07/11/06","04:11:34","AMMA06",80560.000,"cc",28328.377,6.00,2832.838,1,6,0.100,43010.000,0.200,26784.000,0.300,8488.000,0.500,1514.000,1.000,764.000,5.000,0
"07/11/06","04:11:40","AMMA06",82658.000,"cc",28335.191,6.00,2833.519,1,6,0.100,44878.000,0.200,27304.000,0.300,8544.000,0.500,1357.000,1.000,575.000,5.000,0
"07/11/06","04:11:46","AMMA06",84448.000,"cc",28372.537,6.00,2837.254,1,6,0.100,45544.000,0.200,27674.000,0.300,8809.000,0.500,1614.000,1.000,807.000,5.000,0
"07/11/06","04:11:52","AMMA06",78937.000,"cc",28300.072,6.00,2830.007,1,6,0.100,41216.000,0.200,26859.000,0.300,9040.000,0.500,1352.000,1.000,470.000,5.000,0
"07/11/06","04:11:58","AMMA06",79099.000,"cc",28271.953,6.00,2827.196,1,6,0.100,41031.000,0.200,27070.000,0.300,9108.000,0.500,1391.000,1.000,499.000,5.000,0
"07/11/06","04:12:04","AMMA06",78358.000,"cc",28319.926,6.00,2831.993,1,6,0.100,41194.000,0.200,26497.000,0.300,8958.000,0.500,1305.000,1.000,404.000,5.000,0
"07/11/06","04:12:10","AMMA06",78316.000,"cc",28345.203,6.00,2834.521,1,6,0.100,41259.000,0.200,26601.000,0.300,8707.000,0.500,1353.000,1.000,396.000,5.000,0
"07/11/06","04:12:16","AMMA06",79907.000,"cc",28322.520,6.00,2832.252,1,6,0.100,42183.000,0.200,27394.000,0.300,8590.000,0.500,1302.000,1.000,438.000,5.000,0
"07/11/06","04:12:22","AMMA06",80882.000,"cc",28255.504,6.00,2825.551,1,6,0.100,42415.000,0.200,27654.000,0.300,8950.000,0.500,1321.000,1.000,540.000,5.000,2.000
"07/11/06","04:12:28","AMMA06",80116.000,"cc",28289.832,6.00,2828.983,1,6,0.100,41909.000,0.200,27546.000,0.300,8842.000,0.500,1345.000,1.000,474.000,5.000,0
"07/11/06","04:12:34","AMMA06",81036.000,"cc",28372.061,6.00,2837.206,1,6,0.100,42949.000,0.200,27281.000,0.300,8846.000,0.500,1421.000,1.000,539.000,5.000,0
"07/11/06","04:12:40","AMMA06",79129.000,"cc",28313.082,6.00,2831.308,1,6,0.100,41338.000,0.200,27032.000,0.300,8927.000,0.500,1314.000,1.000,517.000,5.000,1.000
"07/11/06","04:12:46","AMMA06",79725.000,"cc",28321.713,6.00,2832.171,1,6,0.100,41837.000,0.200,27264.000,0.300,8832.000,0.500,1306.000,1.000,486.000,5.000,0
"07/11/06","04:12:52","AMMA06",81628.000,"cc",28332.086,6.00,2833.209,1,6,0.100,43256.000,0.200,27744.000,0.300,8930.000,0.500,1257.000,1.000,441.000,5.000,0
"07/11/06","04:12:58","AMMA06",78821.000,"cc",28217.379,6.00,2821.738,1,6,0.100,41183.000,0.200,27064.000,0.300,8621.000,0.500,1370.000,1.000,583.000,5.000,0
"07/11/06","04:13:04","AMMA06",78172.000,"cc",28293.520,6.00,2829.352,1,6,0.100,40825.000,0.200,27093.000,0.300,8464.000,0.500,1311.000,1.000,479.000,5.000,0
"07/11/06","04:13:10","AMMA06",78319.000,"cc",28343.219,6.00,2834.322,1,6,0.100,40873.000,0.200,27098.000,0.300,8720.000,0.500,1207.000,1.000,421.000,5.000,0
"07/11/06","04:13:16","AMMA06",82089.000,"cc",28344.268,6.00,2834.427,1,6,0.100,43096.000,0.200,27971.000,0.300,8928.000,0.500,1458.000,1.000,636.000,5.000,0
"07/11/06","04:13:22","AMMA06",90290.000,"cc",28319.652,6.00,2831.965,1,6,0.100,48879.000,0.200,29751.000,0.300,9464.000,0.500,1495.000,1.000,701.000,5.000,0
"07/11/06","04:13:28","AMMA06",84122.000,"cc",28317.535,6.00,2831.754,1,6,0.100,44829.000,0.200,28467.000,0.300,8948.000,0.500,1377.000,1.000,501.000,5.000,0
"07/11/06","04:13:34","AMMA06",78763.000,"cc",28326.553,6.00,2832.656,1,6,0.100,41226.000,0.200,27165.000,0.300,8617.000,0.500,1286.000,1.000,469.000,5.000,0
"07/11/06","04:13:40","AMMA06",78684.000,"cc",28279.637,6.00,2827.964,1,6,0.100,41027.000,0.200,27311.000,0.300,8758.000,0.500,1209.000,1.000,379.000,5.000,0
"07/11/06","04:13:46","AMMA06",79227.000,"cc",28280.391,6.00,2828.039,1,6,0.100,41097.000,0.200,27362.000,0.300,8961.000,0.500,1360.000,1.000,447.000,5.000,0
"07/11/06","04:13:52","AMMA06",79139.000,"cc",28336.992,6.00,2833.700,1,6,0.100,41046.000,0.200,27530.000,0.300,8889.000,0.500,1236.000,1.000,438.000,5.000,0
"07/11/06","04:13:58","AMMA06",78597.000,"cc",28349.955,6.00,2834.996,1,6,0.100,40627.000,0.200,27430.000,0.300,8878.000,0.500,1310.000,1.000,351.000,5.000,1.000
"07/11/06","04:14:04","AMMA06",78764.000,"cc",28309.096,6.00,2830.910,1,6,0.100,40935.000,0.200,27392.000,0.300,8795.000,0.500,1256.000,1.000,386.000,5.000,0